Vertical_Velocity
2 -7 -1 2 -2 -7 -4 3 -1 4 4 -5 0 0 2 2 0 -5 -0 2 -2 -3 -0 -0 -0 -5 -1 -2 -2 -1 -0 -2 -1 -6 -3 -2 -3 -3 -2 -6 -8 -2 -4 -18
2 -7 -4 1 -1 -2 -3 0 0 -1 -1 -2 -1 -1 -2 1 -2 -2 1 -0 -2 -1 -1 -6 -0 0 -1 -2 0 -4 -2 -2 -0 3 -1 2 1 -1 -1 -0 -1 -3 -4 -15
1 -3 -4 -2 2 -6 1 -4 -1 -3 -2 1 2 1 -1 -1 -4 -1 0 0 -5 -2 -0 0 -0 2 1 2 -0 -1 -3 0 -5 -8 -7 -4 2 2 0 -1 1 -2 -6 -8
1 0 -6 -1 1 -5 1 -4 -0 5 -2 -3 0 0 1 -0 -1 -1 0 6 -3 -4 -0 2 1 1 2 -1 4 -0 -6 -2 1 -1 -1 1 -2 -1 -0 2 -8 1 -2 0
-1 2 -2 -2 -2 -6 1 2 2 -4 -1 0 1 -1 0 1 -0 4 0 -5 1 -2 -1 -4 -1 -4 -1 -3 -0 -0 0 -1 0 -1 -0 1 1 -0 0 -0 -1 3 2 -12
-3 1 -6 -1 -2 -6 -2 -1 1 6 -3 -1 -2 2 -3 -1 0 -0 4 -3 -5 -5 7 2 4 -2 -2 -6 -5 -0 -2 -1 0 -4 0 -1 -3 -8 -2 -2 0 -2 2 -23
1 0 -5 -1 2 -3 3 10 3 2 -2 1 1 0 -2 -0 -1 1 4 -3 -4 4 6 -3 -7 -6 -3 -0 2 -3 -1 0 0 -2 -2 -3 -17 -0 -3 -3 -2 -0 2 -2
-1 3 -3 -1 2 -3 -2 -1 1 3 -1 2 -2 -2 0 -0 -1 -1 -1 1 3 1 -7 -4 -2 -3 -4 -1 0 1 -1 -1 -0 -2 0 -8 -0 -1 -2 -4 -5 -1 -2 -2
0 0 -0 1 -2 -6 0 -1 -6 2 4 -4 1 1 1 -0 0 -2 2 3 1 -4 -1 -1 -1 -1 -2 2 2 0 0 -1 -1 0 1 -1 -1 -1 0 -2 -4 -1 -0 -1
2 -3 1 2 2 -6 -3 4 -2 2 3 -3 1 1 0 0 -0 -1 1 -0 -3 1 -0 -0 -0 -1 -2 -3 -1 -0 1 1 -0 -0 -0 -9 -4 -0 -0 1 -10 -1 -1 -2
-2 -1 -3 -0 3 -5 -2 -1 6 3 -0 -10 1 2 -1 -2 1 -2 -1 -5 -2 -1 -1 -1 -1 0 -2 -1 -4 -4 -5 -2 -1 3 2 -9 -0 0 -3 -7 -3 -0 -1 -2
5 -0 -4 -1 3 -4 -2 -5 8 4 3 -6 0 -1 2 -1 5 -2 0 -0 -1 -2 -1 -0 -1 -0 -0 -1 -1 2 -1 -10 -8 -10 -14 -5 -2 -0 3 5 3 -1 1 0
2 0 -1 -1 -1 -2 2 -5 -1 3 3 -4 -1 -1 -0 -1 1 -1 -6 -1 -2 1 -1 -2 -1 1 -0 -1 -4 1 -1 0 -1 -1 -7 -4 -3 -4 3 1 1 1 1 1
7 -1 -0 -1 -2 -4 3 -3 -2 5 1 2 0 4 2 2 2 2 2 -0 -1 0 1 -1 0 1 0 -1 -3 -1 -7 -1 -3 -4 -4 -3 1 0 -2 -1 -0 -0 -1 -1
3 10 -1 2 1 -3 -0 -4 -5 -1 5 3 -4 -2 -2 -3 -3 -2 0 3 3 -0 2 1 -1 -1 2 -1 -0 -0 -2 -5 -4 -7 -4 -0 -1 -1 0 -2 -0 0 -0 0
1 0 0 -3 3 2 -1 -1 -2 -0 -2 3 0 3 1 1 1 -1 1 -0 5 -1 -4 -2 0 -3 4 1 0 -5 1 2 2 -7 0 -1 -2 -2 -1 1 -2 -1 1 1
0 2 -8 -4 4 -1 -6 2 7 3 4 3 -1 -2 1 1 1 0 2 5 -1 -1 -1 1 0 -1 5 1 -0 -3 1 1 2 7 4 1 1 -0 1 -0 -2 1 0 -0
2 -4 -3 4 5 0 -2 2 2 -1 2 2 1 -3 -2 -1 0 -0 -1 0 2 1 -1 3 0 2 1 1 -3 -0 2 2 -0 -2 -0 2 0 -1 -0 0 -1 1 -1 1
1 8 5 -4 -1 -3 0 1 1 3 3 2 1 -0 -3 1 -0 1 3 -2 2 -0 -0 0 -0 0 -1 -1 1 2 1 3 1 0 -0 -1 0 0 -0 0 0 0 -1 2
0 1 4 1 0 2 3 5 2 1 -0 1 1 1 -1 0 2 0 1 1 -1 0 0 0 1 -1 5 3 4 2 -1 0 1 1 -1 1 -0 0 -0 0 1 1 0 2
-1 6 4 7 -3 6 2 3 1 1 1 1 -2 -0 -0 0 1 -0 0 -1 -0 1 1 1 0 1 0 -1 -1 2 0 -0 0 1 2 1 2 1 0 -1 0 1 0 1
-3 -1 -2 4 4 1 1 -0 -0 -0 -3 2 -0 -0 -1 -1 0 1 0 -0 0 1 0 0 0 2 1 -0 -2 -2 0 0 1 3 1 0 -1 -1 1 0 -0 -1 1 1
-0 0 -1 2 -1 2 2 -0 1 1 -1 -1 -0 -1 -1 1 1 -0 -1 1 0 1 0 1 1 1 0 1 0 -1 2 1 0 1 1 1 2 0 -1 -1 -1 0 -0 -1
0 2 1 -1 1 -1 -1 -1 -1 1 -0 0 -0 -0 0 1 -0 -0 1 0 -1 0 -0 -2 1 1 0 0 2 0 1 2 1 0 1 1 0 1 1 1 2 1 -0 0
-0 2 -1 1 -1 -0 0 -0 0 0 0 -0 -0 -0 0 -0 -0 -0 -0 -0 -0 -0 1 1 1 0 1 -0 -0 0 -0 -1 -1 -0 -1 -1 1 0 2 1 0 -1 1 -1
-2 1 1 -0 1 0 1 0 0 -0 -1 -1 -1 -0 -1 -1 -0 -0 -1 0 -1 -0 -0 0 0 1 1 1 1 1 1 0 1 -0 -0 -0 1 1 1 1 1 2 3 1
2 -1 1 1 1 1 1 1 0 -0 -0 -0 0 1 -4 -3 -0 0 -0 -1 -0 -1 1 4 3 1 -1 2 4 4 3 2 1 0 1 3 3 1 0 -1 -1 1 2 5
Height
1467 1463 1458 1451 1445 1438 1432 1429 1428 1426 1425 1427 1427 1426 1421 1418 1416 1416 1411 1408 1406 1414 1417 1426 1429 1434 1431 1433 1436 1444 1444 1448 1463 1463 1458 1459 1464 1471 1471 1495 1492 1490 1493 1465
1466 1461 1457 1451 1445 1439 1435 1433 1430 1430 1428 1432 1429 1424 1423 1419 1420 1413 1409 1407 1404 1410 1415 1428 1424 1429 1427 1431 1435 1441 1444 1455 1459 1458 1462 1460 1462 1463 1462 1466 1469 1492 1494 1456
1465 1460 1456 1452 1445 1440 1438 1436 1433 1432 1431 1430 1430 1425 1423 1420 1417 1412 1408 1406 1407 1414 1418 1422 1428 1430 1432 1433 1435 1439 1442 1447 1459 1470 1460 1454 1461 1455 1456 1460 1475 1470 1465 1435
1463 1459 1455 1451 1446 1441 1439 1438 1436 1434 1433 1429 1428 1429 1425 1421 1416 1412 1409 1410 1413 1416 1423 1425 1428 1432 1437 1439 1439 1441 1447 1456 1452 1452 1451 1450 1450 1449 1451 1456 1451 1454 1441 1438
1463 1458 1454 1451 1447 1443 1441 1441 1439 1436 1430 1427 1425 1425 1425 1423 1418 1416 1410 1414 1415 1416 1421 1419 1425 1429 1436 1439 1443 1444 1448 1454 1453 1450 1445 1445 1448 1442 1442 1442 1442 1440 1440 1432
1462 1457 1453 1452 1448 1446 1444 1442 1440 1438 1431 1427 1427 1424 1428 1424 1422 1421 1418 1418 1420 1423 1425 1420 1424 1428 1431 1434 1442 1448 1452 1456 1452 1469 1442 1444 1448 1431 1431 1432 1430 1428 1433 1419
1461 1456 1452 1451 1449 1448 1447 1444 1441 1439 1433 1429 1428 1425 1425 1425 1423 1422 1420 1421 1423 1430 1428 1428 1430 1433 1435 1438 1440 1443 1451 1454 1450 1460 1449 1455 1425 1418 1419 1423 1419 1418 1417 1413
1460 1456 1452 1450 1448 1448 1447 1445 1444 1442 1438 1433 1426 1425 1425 1426 1426 1424 1424 1425 1427 1429 1430 1436 1439 1444 1444 1442 1443 1445 1447 1450 1453 1461 1456 1433 1421 1420 1419 1420 1417 1411 1412 1410
1459 1455 1452 1450 1447 1447 1446 1446 1445 1443 1441 1434 1431 1427 1426 1427 1426 1428 1430 1430 1430 1431 1434 1436 1437 1438 1439 1446 1445 1446 1447 1450 1453 1449 1449 1440 1414 1410 1410 1415 1417 1408 1409 1409
1456 1454 1451 1448 1446 1446 1446 1445 1444 1443 1440 1432 1430 1428 1428 1425 1427 1430 1431 1432 1433 1433 1436 1438 1437 1434 1428 1445 1445 1448 1448 1450 1449 1455 1448 1435 1415 1411 1411 1419 1418 1406 1406 1406
1454 1451 1449 1446 1444 1443 1443 1442 1441 1441 1439 1430 1429 1429 1428 1427 1428 1430 1433 1435 1435 1436 1437 1438 1436 1439 1427 1431 1435 1439 1439 1443 1442 1446 1453 1446 1410 1413 1416 1409 1405 1403 1403 1402
1450 1447 1446 1443 1441 1441 1441 1440 1439 1438 1438 1431 1429 1427 1427 1428 1428 1429 1431 1432 1432 1434 1437 1440 1438 1436 1431 1429 1430 1431 1434 1431 1436 1437 1430 1411 1409 1408 1407 1405 1402 1400 1399 1398
1446 1443 1442 1439 1437 1437 1438 1436 1437 1436 1433 1429 1427 1425 1426 1426 1428 1429 1430 1431 1431 1432 1433 1437 1438 1439 1431 1430 1427 1424 1421 1420 1424 1423 1409 1408 1406 1405 1403 1401 1399 1397 1396 1396
1441 1438 1436 1434 1433 1434 1434 1433 1435 1435 1433 1431 1426 1424 1424 1424 1425 1426 1427 1428 1429 1430 1432 1434 1435 1433 1427 1424 1420 1418 1415 1416 1416 1416 1407 1404 1401 1401 1401 1399 1397 1395 1394 1394
1434 1432 1430 1429 1429 1430 1431 1430 1431 1432 1436 1431 1425 1423 1422 1422 1423 1423 1424 1425 1426 1427 1429 1430 1430 1428 1426 1421 1420 1417 1409 1409 1413 1412 1403 1403 1401 1401 1399 1398 1396 1395 1394 1393
1427 1425 1424 1424 1425 1427 1428 1428 1428 1429 1430 1431 1427 1423 1421 1421 1421 1421 1421 1422 1422 1423 1424 1425 1422 1421 1422 1418 1411 1404 1402 1402 1401 1401 1401 1400 1400 1399 1398 1397 1396 1395 1394 1393
1422 1420 1418 1419 1422 1423 1424 1425 1425 1427 1430 1430 1426 1421 1419 1419 1419 1419 1418 1418 1418 1419 1420 1419 1418 1417 1416 1414 1415 1402 1402 1401 1400 1400 1399 1398 1397 1397 1396 1396 1395 1395 1394 1394
1420 1415 1414 1416 1419 1422 1422 1422 1424 1426 1427 1428 1425 1420 1419 1418 1417 1417 1416 1416 1416 1416 1415 1413 1413 1414 1414 1409 1405 1403 1401 1400 1398 1397 1396 1396 1395 1395 1395 1395 1395 1395 1395 1395
1420 1417 1416 1417 1419 1420 1420 1421 1422 1425 1429 1424 1422 1421 1420 1416 1415 1414 1414 1414 1411 1413 1412 1409 1409 1408 1407 1407 1405 1403 1401 1400 1398 1396 1395 1395 1395 1394 1394 1394 1394 1395 1395 1396
1419 1419 1418 1418 1418 1419 1419 1421 1422 1424 1423 1422 1419 1416 1416 1416 1413 1412 1413 1412 1412 1410 1409 1408 1408 1406 1406 1407 1406 1403 1400 1398 1397 1396 1394 1393 1392 1392 1392 1392 1394 1395 1395 1396
1418 1417 1416 1415 1417 1417 1418 1417 1418 1419 1418 1416 1414 1414 1414 1414 1413 1411 1411 1411 1412 1407 1410 1408 1407 1405 1410 1407 1403 1400 1397 1394 1392 1392 1392 1391 1390 1389 1390 1391 1392 1393 1394 1395
1418 1416 1415 1416 1416 1416 1416 1414 1415 1415 1413 1412 1412 1413 1412 1412 1411 1411 1411 1410 1411 1404 1410 1407 1405 1412 1411 1407 1402 1398 1394 1391 1390 1389 1389 1389 1388 1388 1388 1389 1391 1392 1394 1395
1417 1416 1415 1414 1414 1413 1412 1410 1411 1411 1410 1410 1411 1412 1411 1411 1411 1411 1411 1409 1407 1410 1407 1407 1411 1414 1411 1407 1403 1398 1395 1392 1390 1388 1388 1387 1386 1386 1387 1388 1390 1392 1394 1396
1416 1414 1411 1411 1410 1409 1407 1407 1407 1408 1409 1409 1410 1410 1411 1409 1410 1410 1408 1410 1410 1407 1407 1411 1414 1412 1409 1406 1403 1398 1394 1392 1390 1388 1387 1386 1387 1387 1388 1389 1390 1392 1394 1395
1415 1413 1408 1406 1407 1407 1407 1407 1408 1408 1409 1409 1410 1410 1411 1410 1409 1410 1410 1408 1407 1407 1408 1416 1415 1412 1409 1405 1402 1399 1395 1393 1391 1389 1388 1388 1388 1388 1388 1389 1391 1392 1394 1397
1413 1411 1409 1407 1407 1407 1407 1407 1408 1409 1409 1410 1410 1411 1410 1409 1409 1409 1406 1407 1406 1415 1417 1416 1414 1412 1409 1406 1402 1398 1395 1393 1391 1389 1389 1388 1388 1387 1388 1389 1391 1393 1395 1397
1410 1408 1407 1407 1407 1406 1406 1407 1408 1409 1410 1410 1411 1410 1409 1412 1409 1407 1408 1411 1413 1414 1414 1413 1412 1410 1407 1404 1400 1397 1394 1392 1391 1390 1389 1388 1387 1387 1388 1389 1391 1394 1396 1398